Location: Olympia
(47.0371°N, 122.8993°W)
Time: 20:42:57
(UTC-08:00)

ISS - Visible Passes

Search period start: 08 December 2025 00:00
Search period end: 18 December 2025 00:00
Orbit: 416 x 421 km, 51.6° (Epoch: 08 December)

Date Brightness Start Highest point End Pass type
(mag) Time Alt. Az. Time Alt. Az. Time Alt. Az.
12 Dec -1.1 06:44:02 10° SSW 06:46:45 23° SE 06:49:29 10° E visible
13 Dec -0.7 05:57:01 10° S 05:58:59 15° SE 06:00:58 10° E visible
14 Dec -2.9 06:44:05 10° SW 06:47:23 53° SSE 06:50:41 10° ENE visible
15 Dec -2.2 05:56:54 13° SSW 05:59:28 34° SE 06:02:34 10° ENE visible
16 Dec -1.5 05:11:42 22° SE 05:11:42 22° SE 05:14:17 10° E visible
16 Dec -3.8 06:44:43 10° WSW 06:48:05 75° NNW 06:51:29 10° ENE visible
17 Dec -3.7 05:59:10 46° SW 06:00:03 78° SSE 06:03:25 10° ENE visible
